Date String (YYYY-MM-DD hh:mm:ss) UTC,Instrument flags,absolute air pressure of the measurement (hPa),sample flow rate (lpm),inlet stack bypass flow (lpm),air temperature of the measurement (°C),ambient temperature measured by the external sensor (°C),aerosol sample conditioner tube jacket temperature (°C),OPC LED temperature (°C),internal box temperature (°C),relative humidity of the measurement (%),span deviation,mass concentration of particles derived from Lorenz-Mie calculation of OPC scattering (μg/m³),mass concentration of particles derived from Lorenz-Mie calculation of OPC scattering (μg/m³),mass concentration of particles derived from Lorenz-Mie calculation of OPC scattering (μg/m³)
DateTimeUTC,F1_M11,P_M11,Q1_M11,Q2_M11,T1_M11,T2_M11,T3_M11,T4_M11,T5_M11,U1_M11,ZSPAN_M11,X0_M11,X2_M11,X1_M11
2023-08-12 11:00:00,SystemResetWarning,0832.2,5.01,000.00,029.6,028.5,000.0,038.1,031.3,24.8,0000.0,0007.84,0003.32,0002.65
2023-08-12 11:01:00,SystemResetWarning,0832.2,5.01,000.00,029.7,028.6,000.0,038.2,031.4,25.1,0000.0,0007.80,0003.31,0002.66
2023-08-12 11:02:00,SystemResetWarning,0832.2,5.00,000.00,029.7,028.6,000.0,038.2,031.4,24.9,0000.0,0007.86,0003.34,0002.67
2023-08-12 11:03:00,SystemResetWarning,0832.2,5.00,000.00,029.7,028.7,000.0,038.2,031.4,24.9,0000.0,0008.33,0003.35,0002.69
2023-08-12 11:04:00,SystemResetWarning,0832.2,5.00,000.00,029.8,028.7,000.0,038.2,031.4,24.9,0000.0,0008.23,0003.31,0002.70
2023-08-12 11:05:00,SystemResetWarning,0832.2,5.00,000.00,029.8,028.6,000.0,038.2,031.4,24.4,0000.0,0008.26,0003.28,0002.71
2023-08-12 11:06:00,SystemResetWarning,0832.2,4.98,000.00,029.8,027.0,000.0,038.1,031.2,24.3,0000.0,0009.31,0003.31,0002.75
2023-08-12 11:07:00,SystemResetWarning,0832.2,5.02,000.00,029.7,025.7,000.0,038.0,030.9,24.8,0000.0,0009.54,0003.35,0002.77
2023-08-12 11:08:00,SystemResetWarning,0832.2,5.00,000.00,029.6,025.6,000.0,038.0,030.8,24.6,0000.0,0009.57,0003.37,0002.79
2023-08-12 11:09:00,SystemResetWarning,0832.2,5.00,000.00,029.5,025.9,000.0,038.0,030.7,23.9,0000.0,0009.31,0003.40,0002.81
2023-08-12 11:10:00,SystemResetWarning,0832.2,5.00,000.00,029.4,026.2,000.0,038.0,030.8,23.2,0000.0,0008.29,0003.38,0002.82
2023-08-12 11:11:00,SystemResetWarning,0832.2,5.00,000.00,029.4,026.6,000.0,038.0,030.9,23.4,0000.0,0008.37,0003.39,0002.85
2023-08-12 11:12:00,SystemResetWarning,0832.2,5.00,000.00,029.4,027.0,000.0,038.0,030.9,23.5,0000.0,0009.11,0003.44,0002.90
2023-08-12 11:13:00,SystemResetWarning,0832.2,4.99,000.00,029.4,027.3,000.0,038.1,031.0,23.6,0000.0,0008.93,0003.42,0002.93
2023-08-12 11:14:00,SystemResetWarning,0832.2,5.00,000.00,029.5,027.5,000.0,038.1,031.0,23.5,0000.0,0008.36,0003.42,0002.96
2023-08-12 11:15:00,SystemResetWarning,0832.2,5.00,000.00,029.5,027.7,000.0,038.1,031.1,23.6,0000.0,0008.63,0003.47,0003.02
2023-08-12 11:16:00,SystemResetWarning,0832.3,5.00,000.00,029.5,027.9,000.0,038.1,031.1,23.8,0000.0,0008.53,0003.52,0003.06
2023-08-12 11:17:00,SystemResetWarning,0832.3,5.00,000.00,029.5,028.0,000.0,038.1,031.2,23.9,0000.0,0007.65,0003.58,0003.10
2023-08-12 11:18:00,SystemResetWarning,0832.3,5.00,000.00,029.5,028.2,000.0,038.1,031.2,23.9,0000.0,0007.52,0003.63,0003.14
2023-08-12 11:19:00,SystemResetWarning,0832.4,5.00,000.00,029.6,028.3,000.0,038.1,031.2,24.0,0000.0,0007.60,0003.66,0003.16
2023-08-12 11:20:00,SystemResetWarning,0832.5,4.99,000.00,029.6,028.4,000.0,038.1,031.3,24.0,0000.0,0007.68,0003.72,0003.19
2023-08-12 11:21:00,SystemResetWarning,0832.5,5.00,000.00,029.6,028.4,000.0,038.1,031.3,24.2,0000.0,0008.46,0003.81,0003.22
2023-08-12 11:22:00,SystemResetWarning,0832.4,5.00,000.00,029.7,028.5,000.0,038.2,031.3,24.4,0000.0,0008.75,0003.88,0003.24
2023-08-12 11:23:00,SystemResetWarning,0832.5,5.00,000.00,029.7,028.6,000.0,038.2,031.4,24.6,0000.0,0008.09,0003.92,0003.26
2023-08-12 11:24:00,SystemResetWarning,0832.5,5.00,000.00,029.7,028.6,000.0,038.2,031.4,24.3,0000.0,0008.19,0003.95,0003.29
2023-08-12 11:25:00,SystemResetWarning,0832.5,5.00,000.00,029.7,028.6,000.0,038.2,031.4,24.2,0000.0,0008.44,0004.01,0003.32
2023-08-12 11:26:00,SystemResetWarning,0832.5,4.99,000.00,029.8,027.6,000.0,038.2,031.3,24.6,0000.0,0008.45,0004.04,0003.34
2023-08-12 11:27:00,SystemResetWarning,0832.5,5.00,000.00,029.7,025.9,000.0,038.0,031.0,25.3,0000.0,0008.78,0004.08,0003.37
2023-08-12 11:28:00,SystemResetWarning,0832.4,5.00,000.00,029.6,025.5,000.0,037.9,030.8,25.7,0000.0,0008.98,0004.07,0003.41
2023-08-12 11:29:00,SystemResetWarning,0832.4,5.01,000.00,029.5,025.8,000.0,038.0,030.7,25.9,0000.0,0009.06,0004.11,0003.44
2023-08-12 11:30:00,SystemResetWarning,0832.4,5.01,000.00,029.4,026.1,000.0,038.0,030.7,26.1,0000.0,0009.07,0004.14,0003.47
2023-08-12 11:31:00,SystemResetWarning,0832.5,4.99,000.00,029.4,026.5,000.0,038.0,030.8,26.1,0000.0,0009.05,0004.13,0003.51
2023-08-12 11:32:00,SystemResetWarning,0832.5,5.00,000.00,029.4,026.9,000.0,038.0,030.9,26.3,0000.0,0008.53,0004.09,0003.53
2023-08-12 11:33:00,SystemResetWarning,0832.5,5.00,000.00,029.4,027.2,000.0,038.0,031.0,26.3,0000.0,0008.12,0004.09,0003.56
2023-08-12 11:34:00,SystemResetWarning,0832.5,5.00,000.00,029.4,027.4,000.0,038.0,031.0,26.1,0000.0,0008.27,0004.10,0003.58
2023-08-12 11:35:00,SystemResetWarning,0832.5,5.00,000.00,029.4,027.6,000.0,038.0,031.0,26.1,0000.0,0009.13,0004.13,0003.59
2023-08-12 11:36:00,SystemResetWarning,0832.5,5.00,000.00,029.5,027.8,000.0,038.0,031.1,26.3,0000.0,0009.19,0004.15,0003.60
2023-08-12 11:37:00,SystemResetWarning,0832.5,5.00,000.00,029.5,028.0,000.0,038.1,031.1,26.0,0000.0,0009.40,0004.17,0003.61
2023-08-12 11:38:00,SystemResetWarning,0832.5,5.00,000.00,029.5,028.1,000.0,038.1,031.2,25.6,0000.0,0009.71,0004.23,0003.62
2023-08-12 11:39:00,SystemResetWarning,0832.5,5.00,000.00,029.5,028.2,000.0,038.1,031.2,25.2,0000.0,0010.06,0004.25,0003.62
2023-08-12 11:40:00,SystemResetWarning,0832.5,5.00,000.00,029.6,028.3,000.0,038.1,031.2,24.9,0000.0,0010.00,0004.22,0003.61
2023-08-12 11:41:00,SystemResetWarning,0832.5,5.00,000.00,029.6,028.4,000.0,038.1,031.3,24.8,0000.0,0010.32,0004.23,0003.60
2023-08-12 11:42:00,SystemResetWarning,0832.5,5.00,000.00,029.6,028.4,000.0,038.1,031.3,24.8,0000.0,0010.68,0004.29,0003.60
2023-08-12 11:43:00,SystemResetWarning,0832.5,5.00,000.00,029.6,028.5,000.0,038.2,031.3,24.7,0000.0,0011.13,0004.33,0003.60
2023-08-12 11:44:00,SystemResetWarning,0832.5,5.01,000.00,029.7,028.5,000.0,038.2,031.3,24.7,0000.0,0011.18,0004.33,0003.59
2023-08-12 11:45:00,SystemResetWarning,0832.6,5.01,000.00,029.7,028.6,000.0,038.2,031.4,24.7,0000.0,0011.60,0004.31,0003.60
2023-08-12 11:46:00,SystemResetWarning,0832.6,5.00,000.00,029.7,028.6,000.0,038.2,031.4,24.6,0000.0,0010.75,0004.35,0003.61
2023-08-12 11:47:00,SystemResetWarning,0832.5,5.00,000.00,029.7,028.6,000.0,038.2,031.4,24.7,0000.0,0010.93,0004.38,0003.63
2023-08-12 11:48:00,SystemResetWarning,0832.5,4.98,000.00,029.8,027.2,000.0,038.1,031.2,24.4,0000.0,0011.07,0004.39,0003.64
2023-08-12 11:49:00,SystemResetWarning,0832.5,5.00,000.00,029.7,025.7,000.0,038.0,030.9,24.5,0000.0,0011.16,0004.35,0003.64
2023-08-12 11:50:00,SystemResetWarning,0832.5,5.01,000.00,029.6,025.4,000.0,037.9,030.8,24.5,0000.0,0011.27,0004.36,0003.65
2023-08-12 11:51:00,SystemResetWarning,0832.5,5.01,000.00,029.5,025.7,000.0,038.0,030.7,24.6,0000.0,0011.53,0004.40,0003.66
2023-08-12 11:52:00,SystemResetWarning,0832.5,4.99,000.00,029.4,026.1,000.0,038.0,030.7,24.9,0000.0,0011.23,0004.42,0003.68
2023-08-12 11:53:00,SystemResetWarning,0832.6,5.01,000.00,029.4,026.5,000.0,038.0,030.8,25.0,0000.0,0010.91,0004.39,0003.69
2023-08-12 11:54:00,SystemResetWarning,0832.7,5.00,000.00,029.4,026.8,000.0,038.0,030.9,25.0,0000.0,0010.54,0004.38,0003.72
2023-08-12 11:55:00,SystemResetWarning,0832.6,4.99,000.00,029.4,027.1,000.0,038.0,030.9,24.7,0000.0,0010.68,0004.40,0003.74
2023-08-12 11:56:00,SystemResetWarning,0832.6,5.00,000.00,029.4,027.3,000.0,038.0,031.0,24.5,0000.0,0010.23,0004.47,0003.76
2023-08-12 11:57:00,SystemResetWarning,0832.7,5.00,000.00,029.4,027.5,000.0,038.0,031.0,24.5,0000.0,0010.39,0004.51,0003.79
2023-08-12 11:58:00,SystemResetWarning,0832.6,5.01,000.00,029.4,027.7,000.0,038.0,031.0,24.4,0000.0,0010.60,0004.49,0003.80
2023-08-12 11:59:00,SystemResetWarning,0832.6,5.01,000.00,029.4,027.8,000.0,038.0,031.0,24.6,0000.0,0011.03,0004.49,0003.81
